Starlink 5503

operational
NORAD ID: 57257 Int'l Des: 2023-094 Owner: SPXS Country: US Constellation: starlink
LEOCIRCULAR

Über Starlink 5503

Beschreibung wird geladen...

Live-Position

3D-Globus wird geladen...

Nächste Überflüge

Höhenverlauf

Altitude vs Time

uPlot chart will show altitude changes over time

Zweizeiliger Elementsatz

1 57257U 23094AR 25259.34725756 -.00000020 00000-0 13604-4 0 9997
2 57257 43.0030 244.7124 0001181 271.0814 88.9893 15.02538213121702
Epoch: 16. Sept. 2025 • Age: 22 hours

Aktueller Status

Höhe 567.3 km
Geschwindigkeit 7.58 km/s
Subsatellitenpunkt -32.01°S, 13.7°E
Startdatum 7. Juli 2023
Alter 2.1 years
Typ internet

Technische Details

Klassifizierung Payload
Masse 305.00 kg
Trockenmasse 290.00 kg
Gesamtmasse 305.00 kg
Länge 0.20 m
Durchmesser 2.80 m
Spannweite 9.00 m
Form Box + pan
Hersteller SPXS
Bus-Typ Starlink
Phasenstatus In Orbit
Besitzer/Staat SPXS/US

Große Konstellationen

Loading constellations...